Location: Saluda
(35.2377°N, 82.3468°W)
Time: 14:05:06
(UTC+00:00)

SR - Pass Details

Date: 11 October 2022
Orbit: 577 x 875 km, 66.7° (Epoch: 28 November)

Event Time Altitude Azimuth Distance (km) Brightness Sun altitude
Rises 08:40:29 0° 342° (NNW) 3,273 - -35.5°
Reaches altitude 10° 08:43:16 10° 353° (N) 2,290 - -34.9°
Exits shadow 08:47:33 30° 48° (NE) 1,278 ? -34.1°
Maximum altitude 08:47:50 30° 54° (NE) 1,268 ? -34.0°
Drops below altitude 10° 08:52:02 10° 116° (ESE) 2,104 ? -33.2°
Sets 08:54:29 0° 127° (SE) 2,965 ? -32.7°
